CEB5064 RPVM-RJAA

Flight info

Callsign CEB5064
Flight time N/A
Altitude 34000
Route POXOS4P POXOS G578 TAC DCT LIMLE DCT KEITH DCT 25N136E TAXON A339 MAPDO Y85 MOE Y81 RUTAS
Aircraft A21N/M-SDE2E3FGHIJ1RWXY/LB1

Departure

Time 2026-05-04 12:59
Airport Mactan Cebu International Airport (RPVM)

Arrival

Time N/A
Airport Narita International Airport (RJAA)
Time Latitude Longitude Altitude Speed Heading
2026-05-04 12:30 10.31201 123.97652 37 ft 0 kts 25°
2026-05-04 12:45 10.31198 123.97650 38 ft 1 kts 19°
2026-05-04 12:45 10.31193 123.97649 38 ft 2 kts 352°
2026-05-04 12:46 10.31180 123.97656 38 ft 2 kts 328°
2026-05-04 12:46 10.31167 123.97662 38 ft 2 kts 338°
2026-05-04 12:46 10.31199 123.97650 38 ft 1 kts 38°
2026-05-04 12:46 10.31187 123.97643 38 ft 1 kts 21°
2026-05-04 12:47 10.31176 123.97643 38 ft 1 kts 340°
2026-05-04 12:47 10.31164 123.97648 38 ft 1 kts 334°
2026-05-04 12:47 10.31152 123.97654 38 ft 1 kts
2026-05-04 12:47 10.31141 123.97649 37 ft 0 kts 74°
2026-05-04 12:48 10.31143 123.97643 38 ft 1 kts 137°
2026-05-04 12:48 10.31154 123.97633 38 ft 2 kts 135°
2026-05-04 12:48 10.31158 123.97629 38 ft 0 kts 131°
2026-05-04 12:50 10.31157 123.97630 37 ft 0 kts 131°
2026-05-04 12:51 10.31151 123.97637 38 ft 2 kts 132°
2026-05-04 12:51 10.31131 123.97659 37 ft 5 kts 134°
2026-05-04 12:51 10.31095 123.97696 37 ft 8 kts 134°
2026-05-04 12:52 10.31044 123.97748 37 ft 9 kts 134°
2026-05-04 12:52 10.31008 123.97765 37 ft 5 kts 189°
2026-05-04 12:52 10.30966 123.97742 37 ft 7 kts 220°
2026-05-04 12:52 10.30923 123.97699 37 ft 9 kts 225°
2026-05-04 12:53 10.30873 123.97647 37 ft 11 kts 225°
2026-05-04 12:53 10.30814 123.97588 37 ft 12 kts 225°
2026-05-04 12:53 10.30749 123.97523 37 ft 13 kts 224°
2026-05-04 12:53 10.30677 123.97452 37 ft 14 kts 224°
2026-05-04 12:54 10.30602 123.97377 37 ft 15 kts 225°
2026-05-04 12:54 10.30520 123.97296 37 ft 16 kts 224°
2026-05-04 12:54 10.30455 123.97231 37 ft 9 kts 225°
2026-05-04 12:54 10.30422 123.97198 37 ft 4 kts 225°
2026-05-04 12:55 10.30393 123.97169 37 ft 6 kts 216°
2026-05-04 12:55 10.30345 123.97169 37 ft 8 kts 146°
2026-05-04 12:55 10.30311 123.97201 37 ft 5 kts 129°
2026-05-04 12:55 10.30308 123.97208 37 ft 0 kts 109°
2026-05-04 12:56 10.30326 123.97240 37 ft 0 kts 44°
2026-05-04 12:58 10.30438 123.97353 37 ft 59 kts 44°
2026-05-04 12:58 10.30903 123.97819 38 ft 127 kts 45°
2026-05-04 12:58 10.31687 123.98608 141 ft 170 kts 43°
2026-05-04 12:59 10.32521 123.99468 701 ft 174 kts 46°
2026-05-04 12:59 10.33375 124.00359 1374 ft 176 kts 46°
2026-05-04 12:59 10.34217 124.01238 1895 ft 176 kts 47°
2026-05-04 12:59 10.35072 124.02196 2124 ft 188 kts 48°
2026-05-04 13:00 10.35671 124.02882 2287 ft 197 kts 49°
2026-05-04 13:00 10.36951 124.04346 2616 ft 214 kts 49°
2026-05-04 13:00 10.37978 124.05521 2799 ft 233 kts 49°
2026-05-04 13:00 10.39101 124.06804 3089 ft 248 kts 49°
2026-05-04 13:01 10.40289 124.08159 3454 ft 261 kts 49°
2026-05-04 13:01 10.41504 124.09546 4040 ft 263 kts 49°
2026-05-04 13:01 10.42734 124.10950 4693 ft 264 kts 49°
2026-05-04 13:01 10.43959 124.12346 5298 ft 266 kts 49°
2026-05-04 13:02 10.45206 124.13769 5921 ft 268 kts 49°
2026-05-04 13:02 10.46463 124.15203 6519 ft 270 kts 49°
2026-05-04 13:02 10.47716 124.16633 7084 ft 273 kts 49°
2026-05-04 13:02 10.48990 124.18088 7636 ft 276 kts 49°
2026-05-04 13:03 10.50283 124.19566 8169 ft 279 kts 49°
2026-05-04 13:03 10.51572 124.21036 8678 ft 283 kts 49°
2026-05-04 13:03 10.52894 124.22545 9191 ft 286 kts 49°
2026-05-04 13:03 10.54226 124.24065 9681 ft 289 kts 49°
2026-05-04 13:04 10.55566 124.25592 10168 ft 292 kts 49°
2026-05-04 13:04 10.56941 124.27162 10444 ft 303 kts 49°
2026-05-04 13:04 10.58373 124.28798 10668 ft 315 kts 49°
2026-05-04 13:04 10.59872 124.30512 10887 ft 327 kts 49°
2026-05-04 13:05 10.61416 124.32277 11091 ft 339 kts 49°
2026-05-04 13:05 10.63007 124.34096 11287 ft 350 kts 49°
2026-05-04 13:05 10.64656 124.35980 11484 ft 361 kts 50°
2026-05-04 13:05 10.66334 124.37899 11780 ft 367 kts 50°
2026-05-04 13:06 10.68048 124.39857 12200 ft 369 kts 50°
2026-05-04 13:06 10.69736 124.41787 12624 ft 371 kts 50°
2026-05-04 13:06 10.71459 124.43757 13013 ft 373 kts 50°
2026-05-04 13:06 10.73185 124.45732 13406 ft 375 kts 50°
2026-05-04 13:07 10.74927 124.47726 13783 ft 377 kts 50°
2026-05-04 13:07 10.76689 124.49744 14152 ft 379 kts 50°
2026-05-04 13:07 10.78444 124.51754 14526 ft 380 kts 50°
2026-05-04 13:07 10.80196 124.53761 14879 ft 382 kts 50°
2026-05-04 13:08 10.81969 124.55792 15231 ft 384 kts 50°
2026-05-04 13:08 10.83722 124.57801 15568 ft 385 kts 50°
2026-05-04 13:08 10.85522 124.59864 15885 ft 387 kts 50°
2026-05-04 13:08 10.87300 124.61902 16199 ft 389 kts 50°
2026-05-04 13:09 10.89124 124.63973 16502 ft 391 kts 50°
2026-05-04 13:09 10.90959 124.66048 16813 ft 393 kts 50°
2026-05-04 13:09 10.92768 124.68102 17124 ft 394 kts 50°
2026-05-04 13:09 10.94605 124.70190 17434 ft 396 kts 50°
2026-05-04 13:10 10.96447 124.72281 17742 ft 397 kts 50°
2026-05-04 13:10 10.98305 124.74390 18026 ft 399 kts 50°
2026-05-04 13:10 11.00152 124.76484 18279 ft 401 kts 50°
2026-05-04 13:10 11.02024 124.78605 18536 ft 403 kts 50°
2026-05-04 13:11 11.03896 124.80725 18797 ft 404 kts 50°
2026-05-04 13:11 11.05779 124.82859 19059 ft 406 kts 50°
2026-05-04 13:11 11.07686 124.85020 19286 ft 408 kts 49°
2026-05-04 13:11 11.09574 124.87160 19507 ft 410 kts 49°
2026-05-04 13:12 11.11507 124.89344 19762 ft 412 kts 49°
2026-05-04 13:12 11.13416 124.91492 19990 ft 413 kts 49°
2026-05-04 13:12 11.15371 124.93697 20225 ft 415 kts 49°
2026-05-04 13:12 11.17282 124.95861 20460 ft 416 kts 49°
2026-05-04 13:13 11.19220 124.98059 20693 ft 418 kts 49°
2026-05-04 13:13 11.21178 125.00281 20927 ft 419 kts 49°
2026-05-04 13:13 11.23189 125.02423 21146 ft 421 kts 46°
2026-05-04 13:13 11.25337 125.04477 21350 ft 423 kts 43°
2026-05-04 13:14 11.27566 125.06473 21565 ft 425 kts 42°
2026-05-04 13:14 11.29795 125.08450 21775 ft 426 kts 42°
2026-05-04 13:14 11.32030 125.10432 21982 ft 427 kts 42°
2026-05-04 13:14 11.34281 125.12430 22187 ft 429 kts 42°
2026-05-04 13:15 11.36515 125.14413 22387 ft 430 kts 42°
2026-05-04 13:15 11.38806 125.16449 22585 ft 432 kts 42°
2026-05-04 13:15 11.41046 125.18439 22769 ft 433 kts 42°
2026-05-04 13:15 11.43343 125.20484 22959 ft 435 kts 42°
2026-05-04 13:16 11.45604 125.22496 23130 ft 436 kts 42°
2026-05-04 13:16 11.47896 125.24535 23306 ft 438 kts 42°
2026-05-04 13:16 11.50213 125.26599 23481 ft 439 kts 42°
2026-05-04 13:16 11.52510 125.28644 23666 ft 441 kts 42°
2026-05-04 13:17 11.54835 125.30715 23842 ft 442 kts 42°
2026-05-04 13:17 11.57131 125.32762 24008 ft 443 kts 42°
2026-05-04 13:17 11.59469 125.34847 24183 ft 444 kts 42°
2026-05-04 13:17 11.61812 125.36935 24348 ft 446 kts 42°
2026-05-04 13:18 11.64136 125.39008 24516 ft 447 kts 42°
2026-05-04 13:18 11.66503 125.41119 24682 ft 448 kts 42°
2026-05-04 13:18 11.68876 125.43237 24840 ft 450 kts 42°
2026-05-04 13:18 11.71213 125.45321 24980 ft 451 kts 42°
2026-05-04 13:19 11.73595 125.47448 25131 ft 453 kts 42°
2026-05-04 13:19 11.75962 125.49561 25279 ft 454 kts 42°
2026-05-04 13:19 11.78352 125.51696 25430 ft 455 kts 42°
2026-05-04 13:19 11.80743 125.53831 25581 ft 456 kts 42°
2026-05-04 13:20 11.83120 125.55956 25742 ft 457 kts 42°
2026-05-04 13:20 11.85529 125.58108 25881 ft 458 kts 42°
2026-05-04 13:20 11.87915 125.60239 26019 ft 459 kts 41°
2026-05-04 13:20 11.90341 125.62408 26157 ft 460 kts 42°
2026-05-04 13:21 11.92752 125.64564 26288 ft 462 kts 41°
2026-05-04 13:21 11.95183 125.66743 26392 ft 463 kts 42°
2026-05-04 13:21 11.97595 125.68918 26518 ft 464 kts 42°
2026-05-04 13:21 12.00008 125.71091 26685 ft 465 kts 42°
2026-05-04 13:22 12.02428 125.73267 26878 ft 464 kts 42°
2026-05-04 13:22 12.04846 125.75437 27055 ft 464 kts 42°
2026-05-04 13:22 12.07270 125.77613 27228 ft 464 kts 42°
2026-05-04 13:22 12.09698 125.79790 27413 ft 463 kts 42°
2026-05-04 13:23 12.12145 125.81977 27597 ft 463 kts 41°
2026-05-04 13:23 12.14553 125.84122 27784 ft 463 kts 41°
2026-05-04 13:23 12.16999 125.86302 27982 ft 462 kts 41°
2026-05-04 13:23 12.19422 125.88467 28174 ft 462 kts 41°
2026-05-04 13:24 12.21833 125.90624 28358 ft 461 kts 41°
2026-05-04 13:24 12.24264 125.92802 28540 ft 461 kts 41°
2026-05-04 13:24 12.26662 125.94952 28732 ft 461 kts 41°
2026-05-04 13:25 12.31503 125.99296 29133 ft 461 kts 41°
2026-05-04 13:25 12.33887 126.01437 29322 ft 461 kts 41°
2026-05-04 13:25 12.36306 126.03610 29509 ft 461 kts 41°
2026-05-04 13:25 12.38734 126.05791 29696 ft 461 kts 41°
2026-05-04 13:26 12.41141 126.07954 29882 ft 461 kts 41°
2026-05-04 13:26 12.43553 126.10123 30076 ft 461 kts 41°
2026-05-04 13:26 12.45967 126.12295 30280 ft 461 kts 41°
2026-05-04 13:26 12.48382 126.14468 30501 ft 461 kts 41°
2026-05-04 13:27 12.50805 126.16650 30711 ft 461 kts 41°
2026-05-04 13:27 12.53227 126.18829 30920 ft 460 kts 41°
2026-05-04 13:27 12.55634 126.20994 31134 ft 460 kts 41°
2026-05-04 13:27 12.58032 126.23153 31341 ft 460 kts 41°
2026-05-04 13:28 12.60460 126.25339 31546 ft 460 kts 41°
2026-05-04 13:28 12.62848 126.27492 31757 ft 460 kts 41°
2026-05-04 13:28 12.65272 126.29676 31965 ft 460 kts 41°
2026-05-04 13:28 12.67681 126.31848 32149 ft 460 kts 41°
2026-05-04 13:29 12.70065 126.33998 32315 ft 461 kts 41°
2026-05-04 13:29 12.72490 126.36186 32466 ft 462 kts 41°
2026-05-04 13:29 12.74931 126.38387 32619 ft 463 kts 41°
2026-05-04 13:29 12.77346 126.40565 32798 ft 464 kts 41°
2026-05-04 13:30 12.79774 126.42757 32981 ft 465 kts 41°
2026-05-04 13:30 12.82185 126.44934 33164 ft 465 kts 41°
2026-05-04 13:30 12.84628 126.47140 33350 ft 466 kts 41°
2026-05-04 13:30 12.87048 126.49326 33536 ft 466 kts 41°
2026-05-04 13:31 12.89475 126.51520 33727 ft 467 kts 41°
2026-05-04 13:31 12.91939 126.53747 33865 ft 468 kts 41°
2026-05-04 13:31 12.96809 126.58151 33871 ft 468 kts 41°
2026-05-04 13:32 13.01691 126.62567 33873 ft 469 kts 41°
2026-05-04 13:32 13.06599 126.67018 33876 ft 469 kts 41°
2026-05-04 13:33 13.11488 126.71473 33877 ft 469 kts 41°
2026-05-04 13:33 13.16386 126.75898 33877 ft 470 kts 41°
2026-05-04 13:34 13.21321 126.80361 33875 ft 469 kts 41°
2026-05-04 13:34 13.26205 126.84789 33875 ft 469 kts 41°
2026-05-04 13:35 13.33545 126.91452 33878 ft 469 kts 41°
2026-05-04 13:36 13.38423 126.95883 33876 ft 469 kts 41°
2026-05-04 13:36 13.43315 127.00329 33876 ft 469 kts 41°
2026-05-04 13:37 13.48220 127.04789 33873 ft 469 kts 41°
2026-05-04 13:37 13.53101 127.09231 33877 ft 469 kts 41°
2026-05-04 13:38 13.58000 127.13693 33877 ft 469 kts 41°
2026-05-04 13:38 13.62864 127.18126 33882 ft 469 kts 41°
2026-05-04 13:39 13.67751 127.22578 33884 ft 468 kts 41°
2026-05-04 13:39 13.72652 127.27049 33890 ft 469 kts 41°
2026-05-04 13:40 13.77562 127.31531 33893 ft 470 kts 41°
2026-05-04 13:40 13.82445 127.35989 33892 ft 470 kts 41°
2026-05-04 13:41 13.87359 127.40479 33894 ft 470 kts 41°
2026-05-04 13:41 13.92253 127.44955 33894 ft 470 kts 41°
2026-05-04 13:42 13.99555 127.51637 33895 ft 470 kts 41°
2026-05-04 13:42 14.04447 127.56118 33894 ft 470 kts 41°
2026-05-04 13:43 14.09344 127.60606 33892 ft 470 kts 41°
2026-05-04 13:43 14.14231 127.65067 33895 ft 471 kts 41°
2026-05-04 13:44 14.19129 127.69564 33892 ft 471 kts 41°
2026-05-04 13:44 14.24019 127.74066 33895 ft 471 kts 40°
2026-05-04 13:45 14.28917 127.78569 33892 ft 471 kts 40°
2026-05-04 13:45 14.33791 127.83049 33891 ft 472 kts 40°
2026-05-04 13:46 14.38701 127.87563 33881 ft 472 kts 40°
2026-05-04 13:46 14.43611 127.92082 33882 ft 472 kts 40°
2026-05-04 13:47 14.48534 127.96615 33880 ft 472 kts 40°
2026-05-04 13:47 14.53432 128.01128 33888 ft 471 kts 40°
2026-05-04 13:48 14.58314 128.05626 33889 ft 471 kts 40°
2026-05-04 13:48 14.63241 128.10169 33887 ft 471 kts 40°
2026-05-04 13:49 14.68136 128.14687 33887 ft 472 kts 40°
2026-05-04 13:49 14.73049 128.19225 33880 ft 471 kts 40°
2026-05-04 13:50 14.77955 128.23758 33876 ft 471 kts 40°
2026-05-04 13:50 14.82831 128.28268 33876 ft 470 kts 40°
2026-05-04 13:51 14.87705 128.32777 33876 ft 470 kts 40°
2026-05-04 13:51 14.92585 128.37294 33880 ft 469 kts 40°
2026-05-04 13:52 14.99884 128.44057 33885 ft 469 kts 40°
2026-05-04 13:53 15.04765 128.48581 33885 ft 470 kts 40°
2026-05-04 13:53 15.09653 128.53116 33893 ft 469 kts 40°
2026-05-04 13:54 15.16960 128.59869 33900 ft 469 kts 39°
2026-05-04 13:55 15.24263 128.66646 33898 ft 468 kts 40°
2026-05-04 13:55 15.31544 128.73459 33898 ft 468 kts 40°
2026-05-04 13:56 15.36394 128.77985 33898 ft 468 kts 40°
2026-05-04 13:57 15.43658 128.84760 33897 ft 468 kts 40°
2026-05-04 13:58 15.53331 128.93785 33898 ft 468 kts 39°
2026-05-04 13:58 15.60613 129.00586 33900 ft 467 kts 39°
2026-05-04 13:59 15.65442 129.05101 33900 ft 467 kts 39°
2026-05-04 14:00 15.72672 129.11865 33899 ft 466 kts 39°
2026-05-04 14:00 15.79946 129.18677 33900 ft 466 kts 39°
2026-05-04 14:01 15.84758 129.23187 33898 ft 467 kts 39°
2026-05-04 14:02 15.92021 129.30000 33900 ft 467 kts 39°
2026-05-04 14:02 15.96867 129.34554 33898 ft 467 kts 39°
2026-05-04 14:03 16.01653 129.39049 33897 ft 466 kts 39°
2026-05-04 14:03 16.06469 129.43576 33898 ft 466 kts 39°
2026-05-04 14:04 16.13670 129.50339 33898 ft 467 kts 39°
2026-05-04 14:04 16.18524 129.54886 33900 ft 466 kts 39°
2026-05-04 14:05 16.25721 129.61661 33900 ft 466 kts 39°
2026-05-04 14:06 16.30558 129.66228 33901 ft 466 kts 39°
2026-05-04 14:06 16.35318 129.70752 33902 ft 466 kts 39°
2026-05-04 14:07 16.40115 129.75299 33905 ft 466 kts 39°
2026-05-04 14:07 16.44937 129.79863 33908 ft 466 kts 39°
2026-05-04 14:08 16.49746 129.84415 33918 ft 467 kts 39°
2026-05-04 14:08 16.52147 129.86687 34056 ft 468 kts 39°
2026-05-04 14:08 16.54557 129.88969 34317 ft 466 kts 39°
2026-05-04 14:08 16.56954 129.91242 34563 ft 465 kts 39°
2026-05-04 14:09 16.61714 129.95754 34993 ft 464 kts 39°
2026-05-04 14:09 16.64103 129.98019 35185 ft 464 kts 39°
2026-05-04 14:10 16.68720 130.02750 35524 ft 465 kts 43°
2026-05-04 14:10 16.70954 130.05194 35695 ft 465 kts 43°
2026-05-04 14:10 16.73163 130.07625 35847 ft 466 kts 43°
2026-05-04 14:11 16.77616 130.12526 35910 ft 467 kts 43°
2026-05-04 14:11 16.84328 130.19907 35917 ft 466 kts 43°
2026-05-04 14:12 16.88769 130.24793 35917 ft 465 kts 43°
2026-05-04 14:13 16.95460 130.32161 35918 ft 466 kts 43°
2026-05-04 14:13 16.99914 130.37070 35917 ft 466 kts 43°
2026-05-04 14:14 17.04388 130.42001 35916 ft 466 kts 43°
2026-05-04 14:14 17.11073 130.49379 35918 ft 466 kts 43°
2026-05-04 14:15 17.19974 130.59164 35920 ft 466 kts 43°
2026-05-04 14:16 17.26660 130.66559 35919 ft 465 kts 44°
2026-05-04 14:17 17.33292 130.73949 35923 ft 465 kts 44°
2026-05-04 14:18 17.39945 130.81343 35924 ft 465 kts 44°
2026-05-04 14:19 17.48809 130.91190 35927 ft 465 kts 44°
2026-05-04 14:19 17.53244 130.96120 35928 ft 465 kts 44°
2026-05-04 14:20 17.57676 131.01050 35929 ft 465 kts 44°
2026-05-04 14:20 17.62103 131.05981 35930 ft 464 kts 44°
2026-05-04 14:21 17.68724 131.13364 35932 ft 464 kts 44°
2026-05-04 14:21 17.73144 131.18295 35931 ft 464 kts 44°
2026-05-04 14:22 17.77556 131.23221 35934 ft 464 kts 44°
2026-05-04 14:22 17.81950 131.28131 35936 ft 464 kts 44°
2026-05-04 14:23 17.88601 131.35570 35937 ft 465 kts 44°
2026-05-04 14:24 17.93010 131.40508 35938 ft 465 kts 44°
2026-05-04 14:24 17.97446 131.45479 35938 ft 464 kts 44°
2026-05-04 14:25 18.01836 131.50401 35938 ft 464 kts 44°
2026-05-04 14:25 18.08458 131.57834 35937 ft 464 kts 44°
2026-05-04 14:26 18.12897 131.62807 35937 ft 464 kts 44°
2026-05-04 14:26 18.17294 131.67734 35937 ft 465 kts 45°
2026-05-04 14:27 18.21708 131.72719 35937 ft 465 kts 45°
2026-05-04 14:27 18.26119 131.77698 35937 ft 465 kts 44°
2026-05-04 14:28 18.30528 131.82672 35937 ft 464 kts 45°
2026-05-04 14:28 18.34927 131.87634 35936 ft 464 kts 44°
2026-05-04 14:29 18.43739 131.97586 35937 ft 464 kts 45°
2026-05-04 14:30 18.48142 132.02567 35935 ft 464 kts 45°
2026-05-04 14:31 18.51063 132.05872 35937 ft 464 kts 44°
2026-05-04 14:32 18.67960 132.25027 35936 ft 464 kts 45°
2026-05-04 14:33 18.72362 132.30026 35936 ft 464 kts 45°
2026-05-04 14:33 18.76734 132.34998 35936 ft 464 kts 45°
2026-05-04 14:34 18.81160 132.40034 35936 ft 463 kts 45°
2026-05-04 14:34 18.85539 132.45021 35936 ft 464 kts 45°
2026-05-04 14:35 18.89907 132.49999 35934 ft 463 kts 45°
2026-05-04 14:35 18.94313 132.55025 35937 ft 464 kts 45°
2026-05-04 14:36 18.98722 132.60056 35935 ft 464 kts 45°
2026-05-04 14:36 19.03090 132.65048 35940 ft 463 kts 45°
2026-05-04 14:37 19.07492 132.70110 35938 ft 463 kts 45°
2026-05-04 14:37 19.11859 132.75124 35939 ft 463 kts 45°
2026-05-04 14:38 19.16233 132.80109 35939 ft 463 kts 45°
2026-05-04 14:38 19.20615 132.85118 35941 ft 463 kts 45°
2026-05-04 14:39 19.25002 132.90146 35944 ft 463 kts 45°
2026-05-04 14:39 19.29378 132.95169 35949 ft 463 kts 45°
2026-05-04 14:40 19.35928 133.02699 35957 ft 463 kts 45°
2026-05-04 14:40 19.40276 133.07703 35955 ft 463 kts 45°
2026-05-04 14:41 19.44625 133.12711 35960 ft 463 kts 45°
2026-05-04 14:42 19.53341 133.22763 35956 ft 464 kts 45°
2026-05-04 14:42 19.57733 133.27835 35958 ft 464 kts 45°
2026-05-04 14:43 19.62097 133.32880 35963 ft 464 kts 45°
2026-05-04 14:43 19.66456 133.37920 35962 ft 465 kts 45°
2026-05-04 14:44 19.70856 133.43013 35960 ft 464 kts 45°
2026-05-04 14:44 19.75223 133.48076 35956 ft 464 kts 45°
2026-05-04 14:45 19.79582 133.53130 35955 ft 464 kts 45°
2026-05-04 14:45 19.83918 133.58165 35954 ft 464 kts 45°
2026-05-04 14:46 19.88279 133.63229 35953 ft 464 kts 45°
2026-05-04 14:46 19.92634 133.68308 35956 ft 465 kts 46°
2026-05-04 14:47 19.96992 133.73408 35958 ft 465 kts 46°
2026-05-04 14:47 20.01365 133.78516 35956 ft 466 kts 45°
2026-05-04 14:48 20.05734 133.83614 35952 ft 466 kts 45°
2026-05-04 14:48 20.10106 133.88716 35958 ft 465 kts 45°
2026-05-04 14:49 20.14489 133.93805 35961 ft 465 kts 45°
2026-05-04 14:49 20.18856 133.98886 35960 ft 465 kts 45°
2026-05-04 14:50 20.23215 134.03978 35959 ft 465 kts 45°
2026-05-04 14:50 20.27576 134.09084 35967 ft 465 kts 46°
2026-05-04 14:51 20.31962 134.14224 35965 ft 465 kts 45°
2026-05-04 14:51 20.36285 134.19296 35965 ft 465 kts 45°
2026-05-04 14:52 20.40643 134.24414 35970 ft 465 kts 45°
2026-05-04 14:52 20.44987 134.29521 35970 ft 465 kts 45°
2026-05-04 14:53 20.49338 134.34639 35968 ft 464 kts 45°
2026-05-04 14:53 20.53678 134.39751 35963 ft 465 kts 46°
2026-05-04 14:54 20.58015 134.44861 35964 ft 465 kts 46°
2026-05-04 14:54 20.62377 134.50006 35963 ft 465 kts 46°
2026-05-04 14:55 20.66720 134.55138 35965 ft 465 kts 46°
2026-05-04 14:55 20.71059 134.60266 35966 ft 465 kts 45°
2026-05-04 14:56 20.75369 134.65366 35967 ft 465 kts 46°
2026-05-04 14:56 20.79693 134.70514 35967 ft 464 kts 46°
2026-05-04 14:57 20.84021 134.75659 35967 ft 464 kts 46°
2026-05-04 14:57 20.88324 134.80765 35962 ft 465 kts 46°
2026-05-04 14:58 20.92674 134.85930 35957 ft 465 kts 46°
2026-05-04 14:58 20.97334 134.90678 35957 ft 461 kts 36°
2026-05-04 14:59 21.02721 134.94373 35959 ft 458 kts 25°
2026-05-04 14:59 21.08604 134.96869 35961 ft 455 kts 13°
2026-05-04 15:00 21.11722 134.97731 35966 ft 455 kts 11°
2026-05-04 15:00 21.17855 134.99271 35974 ft 454 kts 11°
2026-05-04 15:01 21.27119 135.01610 35986 ft 454 kts 11°
2026-05-04 15:01 21.33249 135.03177 35990 ft 453 kts 11°
2026-05-04 15:02 21.39396 135.04753 35989 ft 453 kts 11°
2026-05-04 15:02 21.45545 135.06332 35989 ft 454 kts 11°
2026-05-04 15:03 21.51705 135.07918 35992 ft 454 kts 11°
2026-05-04 15:03 21.57839 135.09497 35992 ft 454 kts 11°
2026-05-04 15:04 21.64030 135.11095 35993 ft 454 kts 11°
2026-05-04 15:04 21.70191 135.12683 35997 ft 455 kts 11°
2026-05-04 15:05 21.76370 135.14278 35993 ft 455 kts 11°
2026-05-04 15:05 21.82538 135.15871 35997 ft 454 kts 11°
2026-05-04 15:06 21.88699 135.17465 35998 ft 454 kts 11°
2026-05-04 15:07 21.97921 135.19853 35999 ft 455 kts 11°
2026-05-04 15:07 22.04081 135.21451 35997 ft 455 kts 11°
2026-05-04 15:08 22.10257 135.23053 36001 ft 455 kts 11°
2026-05-04 15:08 22.16387 135.24640 35999 ft 454 kts 11°
2026-05-04 15:09 22.22559 135.26241 35999 ft 454 kts 11°
2026-05-04 15:09 22.28714 135.27840 36001 ft 454 kts 11°
2026-05-04 15:10 22.37911 135.30234 36002 ft 454 kts 11°
2026-05-04 15:11 22.47179 135.32649 36000 ft 454 kts 11°
2026-05-04 15:11 22.53292 135.34247 36000 ft 454 kts 11°
2026-05-04 15:12 22.59467 135.35861 36001 ft 454 kts 11°
2026-05-04 15:12 22.65589 135.37463 36001 ft 454 kts 11°
2026-05-04 15:13 22.71738 135.39072 35999 ft 454 kts 11°
2026-05-04 15:13 22.77900 135.40688 35999 ft 454 kts 11°
2026-05-04 15:14 22.84047 135.42299 35999 ft 454 kts 11°
2026-05-04 15:14 22.90202 135.43915 36001 ft 454 kts 11°
2026-05-04 15:15 22.96350 135.45531 36002 ft 454 kts 11°
2026-05-04 15:15 23.02491 135.47147 35998 ft 454 kts 11°
2026-05-04 15:16 23.11722 135.49577 35996 ft 454 kts 10°
2026-05-04 15:17 23.20956 135.52005 35998 ft 455 kts 10°
2026-05-04 15:17 23.30143 135.54428 35997 ft 455 kts 10°
2026-05-04 15:18 23.36310 135.56058 35999 ft 455 kts 10°